Location: 3 Angels Observatory
(30.5437°N, 88.5068°W)
Time: 02:30:17
(UTC-05:00)

Daily predictions for brighter satellites

Satellite Brightness Start Highest point End
(mag) Time Altitude Azimuth Time Altitude Azimuth Time Altitude Azimuth
Okean O Rocket 4.4 04:18:02 10° NE 04:18:42 13° NE 04:18:42 13° NE
CZ-4C R/B 3.7 04:46:34 37° SSW 04:46:34 37° SSW 04:51:35 10° S
Cosmos 158 Rocket 4.3 04:53:33 45° N 04:55:07 68° ENE 05:00:25 10° SSE
Cosmos 2227 Rocket 4.2 04:55:52 10° N 05:00:34 26° ENE 05:05:13 10° ESE
ATLAS 2AS CENTAUR R/B 4.1 04:55:47 10° S 05:02:35 41° ESE 05:09:54 10° NE
Milstar 3 2.8 05:01:36 53° SW 05:02:37 59° SSW 05:09:48 10° ESE
ADEOS II 4.4 04:59:32 10° N 04:59:49 11° N 04:59:49 11° N
Cosmos 1809 Rocket 4.3 05:01:22 10° N 05:07:31 87° W 05:13:41 10° S
Cosmos 1048 Rocket 4.1 05:06:33 24° N 05:09:47 76° ENE 05:15:03 10° SSE
NOSS 2-3 (E) 3.7 05:09:13 65° S 05:09:50 78° ESE 05:14:49 10° NNE
Meteor 1-24 Rocket 3.7 05:07:58 10° S 05:13:59 82° W 05:19:56 10° N
Cosmos 1656 4.1 05:09:33 10° S 05:15:09 63° ESE 05:20:46 10° NNE
Intercosmos 24 4.2 05:12:51 10° N 05:16:42 58° E 05:20:10 10° SSE
USA 267 3.5 05:11:56 10° SE 05:18:25 69° NE 05:23:31 17° NNW
Cosmos 962 Rocket 4.4 05:13:00 10° NNW 05:18:56 55° W 05:24:51 10° SSW
IRS-1C Rocket 3.9 05:21:21 10° N 05:26:36 72° WNW 05:31:49 10° SSW
Cosmos 2218 Rocket 4.1 05:20:30 10° N 05:26:49 82° E 05:33:10 10° S
In-Cosmos 22 4.1 05:23:12 10° SSW 05:28:45 70° W 05:34:28 10° N
Meteor 2-21 Rocket 4.3 05:23:59 10° N 05:30:03 74° W 05:36:09 10° S
SJ-6F 4.4 05:27:12 10° NNE 05:31:17 82° ESE 05:35:21 10° S
Cosmos 2219 3.3 05:31:24 31° NW 05:33:43 49° WSW 05:39:05 10° S
Tiangong 2 3.4 05:36:21 15° S 05:36:21 15° S 05:37:18 10° S
Meteor 1-31 Rocket 2.6 05:31:47 10° N 05:35:33 63° WNW 05:38:11 19° SSW
Cosmos 2297 Rocket 3.3 05:32:17 10° N 05:37:41 45° ENE 05:43:03 10° SE
Cosmos 1697 Rocket 3.1 05:32:26 10° S 05:38:00 66° ESE 05:43:37 10° NNE
Cosmos 1174 4.3 05:33:47 13° NNW 05:38:49 78° WSW 05:43:18 10° SSE
OAO 2 Rocket 3.6 05:37:46 37° WSW 05:39:19 51° SSW 05:44:09 10° SE
CZ-4B R/B 4.1 05:37:43 10° N 05:42:09 59° WNW 05:46:31 10° SSW
NOSS 2-3 (C) 4.0 05:42:57 32° WSW 05:44:37 46° WNW 05:49:30 10° NNE
Cosmos 1908 4.1 05:42:21 10° N 05:46:05 50° E 05:49:47 10° SSE
Cosmos 1959 Rocket 4.4 05:41:26 10° NNW 05:47:38 66° W 05:53:43 10° S
Cosmos 2082 4.3 05:44:06 10° N 05:49:39 57° ENE 05:55:08 10° SSE
Landsat 4 3.6 05:45:55 10° SSE 05:49:41 86° WSW 05:53:27 10° NNW
ERBS 3.1 05:49:43 33° WSW 05:49:43 33° WSW 05:52:50 10° S
EO 1 Del DPAF 4.4 05:47:10 10° SSE 05:50:50 46° ENE 05:54:30 10° N
Cosmos 1980 Rocket 3.2 05:48:14 10° S 05:53:34 48° ESE 05:58:57 10° NNE
Okean O Rocket 3.5 05:55:02 10° NNW 05:56:09 14° NW 05:56:09 14° NW
Meteor 1-28 Rocket 3.1 05:54:51 10° SSE 05:58:39 88° W 06:02:28 10° NNW
Cosmos 2221 3.0 05:56:28 10° N 06:00:49 63° E 06:05:07 10° SSE
CZ-2C R/B 4.1 05:56:55 10° NNE 06:01:40 39° E 06:06:27 10° SSE
COSMO-SKYMED 1 3.2 06:01:10 10° SSE 06:05:25 58° ENE 06:09:41 10° N
CZ-4B R/B 4.1 06:01:30 10° NNW 06:06:00 26° WNW 06:10:34 10° SW
Feng Yun 1-1 Rocket 4.3 06:01:15 10° N 06:06:56 72° WNW 06:12:44 10° SSW
Cosmos 2369 4.3 06:03:45 10° SW 06:08:46 33° WNW 06:13:50 10° N
PAYLOAD A 4.1 06:07:07 10° NNE 06:11:56 75° ESE 06:16:52 10° S
Meteor 1-21 Rocket 4.2 06:07:13 10° SSW 06:12:59 71° W 06:18:41 10° N
Cosmos 494 Rocket 3.9 06:13:15 10° NNW 06:18:25 72° WSW 06:23:36 10° S
Okean-O 2.9 06:16:53 10° N 06:21:07 46° WNW 06:25:21 10° SSW
Cosmos 1674 3.8 06:21:53 10° SW 06:24:51 22° W 06:27:50 10° NNW
Cosmos 1726 2.1 06:24:48 10° N 06:28:29 88° E 06:32:09 10° S
Cosmos 1328 4.3 06:26:06 10° S 06:30:06 68° E 06:34:06 10° NNE
Cosmos 1076 Rocket 3.8 06:28:33 10° SSW 06:32:42 44° W 06:36:51 10° N
Cosmos 2098 Rocket 4.4 06:37:08 10° N 06:44:41 75° W 06:51:31 10° S
CZ-3 R/B 3.9 06:31:31 10° W 06:47:49 26° SW 06:54:00 10° S
